User: anonymous   Login
Location: Unspecified
(0.0000°N, 0.0000°E)
Time: 13:48:16
(UTC+00:00)
Language:

Kosmos-2100 - Orbit

View from above orbital plane
View from above orbital plane
View from above satellite
View from above satellite

Ground track
Ground track

The orbit data is extracted from the following two-line orbital elements,

1 20804U 90083A   17114.57853734 +.00000041 +00000-0 +27122-4 0  9993
2 20804 082.9363 121.0384 0035773 225.5656 253.1505 13.74301554334365
Epoch (UTC): 24 April 2017 13:53:05
Eccentricity: 0.0035773
inclination: 82.9363°
perigee height: 958 km
apogee height: 1010 km
right ascension of ascending node: 121.0384°
argument of perigee: 225.5656°
revolutions per day: 13.74301554
mean anomaly at epoch: 253.1505°
orbit number at epoch: 33436

The dashed part of the orbit path shows where the satellite is in the earth's shadow,  

DLR